Tracking 20092 objects as of 14-Dec-2019
HD Live streaming from Space Station
objects crossing your sky now

STTW-3

Track STTW-3 now!
STTW-3 is classified as:


NORAD ID: 19710
Int'l Code: 1988-111A
Perigee: 35,762.8 km
Apogee: 35,794.8 km
Inclination: 15.1 °
Period: 1,435.3 minutes
Semi major axis: 42149 km
RCS: 6.3096 m2 (large)
Launch date: December 22, 1988
Source: People's Republic of China (PRC)
Launch site: Xichang Space Center, China (XSC)
aabbcc
Your satellite tracking list
Your tracking list is empty




NASA's NSSDC Master Catalog

Two Line Element Set (TLE):
1 19710U 88111A   19346.63334045  .00000099  00000-0  00000+0 0  9995
2 19710  15.1071   5.0704 0003797  56.9938 294.9019  1.00325275107004
Source of the keplerian elements: AFSPC